Showing default

OPS 7613 (P/L 1), 4256

Orbit data source: Space-Track

OPS 7613 (P/L 1), 4256 is a payload satellite owned by NRL (US) in LEO that was launched on Tue, 30 Sep 1969 UTC via a THORAD SLV-2G AGENA D launch vehicle from the Air Force Western Test Range (AFWTR). Payload-class satellites include a variety of spacecraft equipped with specific instruments for various scientific and technological missions. These include communications satellites like Starlink; space stations such as the ISS; scientific satellites like the Hubble; Earth observation satellites from companies like Planet Labs, Umbra, and HawkEye 360; GPS; miniature CubeSats for education and research; and military/defense satellites.

Loading next visibility...
Identifier
4256, 1969-082B
Orbit
LEO
Country
Flag of USUS
Related business
Manufacturer
NRL
Mission
Spacecraft
Bus & Motor
NRL 24"?, Unknown motor
Mass
23 kg wet, 23 kg dry
Launch date (UTC)
1969-09-30 (57 years ago)
Launch vehicle
THORAD SLV-2G AGENA D
Launch site
Air Force Western Test Range (AFWTR)
Object type
Payload
Rocket body
Debris
Shape & HBR
Unknown
Radar Cross Section
Medium (>0.1 m² and <1 m²)

Expand to show TLE details & history
Last TLE update: 21 hours ago

TLE from 21 hours ago
0 OPS 7613 (P/L 1)
1 04256U 69082B   26093.53075982  .00000155  00000-0  14355-3 0  9993
2 04256  70.0075 125.3950 0019008 171.5308 188.6124 13.99176417880022
Epoch: 2026-04-03T12:44Z
TLE epoch observation values (Epoch: 2026-04-03T12:44:17.648Z)
Latitude
-0.00002°
Longitude
102.4579°
Altitude
912.639 km
Speed
7.389 km/s
True Right ascension
08h 21m 34s
True Declination
0° 00' 00"
Sunlit
Object was in daylight at epoch
Visualization orbit readout
Latitude
Unknown
Longitude
Unknown
Altitude
Unknown
Speed
Unknown
Apparent Right ascension
Unknown
Apparent Declination
Unknown
Sunlit
N/A
Visualization observer readout
Local Sidereal Time
15:21:38
Azimuth
Unknown
Elevation
Unknown
Doppler factor
Unknown
Orbital elements
Apogee altitude
908.512 km
Perigee altitude
880.864 km
Semi-major axis
7,272.825 km
Eccentricity
0.0019
Inclination
70.0075°
RAAN
125.395°
Arg. of periapsis
171.5308°
True anomaly
188.57986°
Mean anomaly
188.6124°
Eccentric anomaly
188.59612°
Mean motion
3.49936 °/min
Orbital period
102.88 mins
BSTAR
0.00014355
Loading maneuver chart data...
Computing Atmospheric mass density...

Documentation

Showing up to 5 results
|